Location: Rio de Janeiro
(22.9068°S, 43.1729°W)
Time: 12:44:04
(UTC-03:00)

Envisat - Pass Details

Date: 06 December 2023
Orbit: 762 x 764 km, 98.3° (Epoch: 03 March)

Event Time Altitude Azimuth Distance (km) Brightness Sun altitude
Exits shadow 01:45:15 13° 84° (E) 2,071 5.5 -35.8°
Maximum altitude 01:47:11 16° 110° (ESE) 1,907 5.5 -35.6°
Drops below altitude 10° 01:50:16 10° 147° (SSE) 2,317 6.3 -35.1°
Sets 01:53:24 0° 167° (SSE) 3,251 7.1 -34.7°
